timestamp,wind_dir_avg,wind_spd_avg,wind_spd_max_dir,wind_spd_gust,battery_voltage,lat,long
2021-11-21 00:04:01+00:00,336.0,8.58,328.0,9.95,12.57,47.59359,-54.27349
2021-11-21 00:14:01+00:00,333.0,9.05,321.0,11.66,12.57,47.59359,-54.27349
2021-11-21 00:24:01+00:00,330.0,12.65,327.0,16.76,12.57,47.59359,-54.27349
2021-11-21 00:34:01+00:00,340.0,10.91,344.0,13.02,12.57,47.59359,-54.27349
2021-11-21 00:44:01+00:00,328.0,11.91,327.0,15.05,12.57,47.59359,-54.27349
2021-11-21 00:54:01+00:00,323.0,14.94,325.0,17.38,12.57,47.59359,-54.27349
2021-11-21 01:04:01+00:00,326.0,13.41,325.0,16.07,12.57,47.59359,-54.27349
2021-11-21 01:14:00+00:00,320.0,14.17,334.0,15.37,12.57,47.59359,-54.27349
2021-11-21 01:24:00+00:00,318.0,14.03,320.0,15.51,12.57,47.59359,-54.27349
2021-11-21 01:34:00+00:00,324.0,13.97,322.0,15.76,12.57,47.59359,-54.27349
2021-11-21 01:44:00+00:00,319.0,13.01,320.0,14.88,12.57,47.59359,-54.27349
2021-11-21 01:54:00+00:00,313.0,12.11,313.0,13.75,12.57,47.59359,-54.27349
2021-11-21 02:04:00+00:00,308.0,11.87,309.0,13.22,12.57,47.59359,-54.27349
2021-11-21 02:14:01+00:00,314.0,11.44,313.0,14.18,12.57,47.59359,-54.27349
2021-11-21 02:24:01+00:00,321.0,8.99,306.0,12.35,12.57,47.59359,-54.27349
2021-11-21 02:34:01+00:00,333.0,7.94,313.0,11.69,12.57,47.59359,-54.27349
2021-11-21 02:44:01+00:00,334.0,7.54,313.0,11.74,12.57,47.59359,-54.27349
2021-11-21 02:54:01+00:00,324.0,7.77,312.0,11.69,12.57,47.59359,-54.27349
2021-11-21 03:04:01+00:00,350.0,7.76,335.0,8.94,12.57,47.59359,-54.27349
2021-11-21 03:14:01+00:00,348.0,7.49,339.0,9.24,12.49,47.59359,-54.27349
2021-11-21 03:24:01+00:00,359.0,6.95,330.0,8.52,12.49,47.59359,-54.27349
2021-11-21 03:34:01+00:00,12.0,7.02,15.0,8.1,12.49,47.59359,-54.27349
2021-11-21 03:44:01+00:00,345.0,5.6,335.0,7.01,12.49,47.59359,-54.27349
2021-11-21 03:54:01+00:00,350.0,5.94,302.0,10.55,12.49,47.59359,-54.27349
2021-11-21 04:04:01+00:00,21.0,4.25,21.0,5.13,12.49,47.59359,-54.27349
2021-11-21 04:14:01+00:00,350.0,6.18,332.0,8.11,12.49,47.59359,-54.27349
2021-11-21 04:24:01+00:00,332.0,5.4,324.0,6.66,12.49,47.59359,-54.27349
2021-11-21 04:34:01+00:00,321.0,5.67,314.0,6.73,12.49,47.59359,-54.27349
2021-11-21 04:44:01+00:00,321.0,6.71,305.0,9.68,12.49,47.59359,-54.27349
2021-11-21 04:54:01+00:00,337.0,5.03,326.0,7.12,12.49,47.59359,-54.27349
2021-11-21 05:04:01+00:00,310.0,7.68,305.0,10.53,12.49,47.59359,-54.27349
2021-11-21 05:14:00+00:00,327.0,5.2,323.0,6.55,12.49,47.59359,-54.27349
2021-11-21 05:24:00+00:00,324.0,5.71,301.0,10.26,12.49,47.59359,-54.27349
2021-11-21 05:34:00+00:00,337.0,6.68,331.0,8.61,12.49,47.59359,-54.27349
2021-11-21 05:44:00+00:00,333.0,6.78,334.0,7.87,12.49,47.59359,-54.27349
2021-11-21 05:54:00+00:00,309.0,9.29,303.0,11.08,12.49,47.59359,-54.27349
2021-11-21 06:04:00+00:00,303.0,9.87,298.0,11.15,12.49,47.59359,-54.27349
2021-11-21 06:14:00+00:00,298.0,9.28,299.0,11.12,12.49,47.59359,-54.27349
2021-11-21 06:24:00+00:00,298.0,8.79,294.0,10.84,12.49,47.59359,-54.27349
2021-11-21 06:34:00+00:00,320.0,6.08,299.0,9.8,12.49,47.59359,-54.27349
2021-11-21 06:44:00+00:00,314.0,4.94,295.0,8.53,12.49,47.59359,-54.27349
2021-11-21 06:54:00+00:00,319.0,5.32,306.0,7.12,12.49,47.59359,-54.27349
2021-11-21 07:04:00+00:00,302.0,6.61,295.0,9.53,12.49,47.59359,-54.27349
2021-11-21 07:14:00+00:00,294.0,6.65,288.0,10.07,12.41,47.59359,-54.27349
2021-11-21 07:24:00+00:00,308.0,5.16,299.0,8.42,12.41,47.59359,-54.27349
2021-11-21 07:34:00+00:00,292.0,8.82,291.0,10.35,12.41,47.59359,-54.27349
2021-11-21 07:44:00+00:00,296.0,6.13,287.0,9.13,12.41,47.59359,-54.27349
2021-11-21 07:54:00+00:00,288.0,8.35,293.0,9.95,12.41,47.59359,-54.27349
2021-11-21 08:04:00+00:00,284.0,9.14,285.0,9.97,12.41,47.59359,-54.27349
2021-11-21 08:14:00+00:00,289.0,5.33,281.0,9.48,12.41,47.59359,-54.27349
2021-11-21 08:24:00+00:00,290.0,7.22,287.0,9.79,12.41,47.59359,-54.27349
2021-11-21 08:34:00+00:00,297.0,4.85,281.0,8.41,12.41,47.59359,-54.27349
2021-11-21 08:44:00+00:00,294.0,5.84,284.0,9.56,12.41,47.59359,-54.27349
2021-11-21 08:54:00+00:00,319.0,3.84,320.0,5.66,12.41,47.59359,-54.27349
2021-11-21 09:04:00+00:00,299.0,4.29,291.0,5.6,12.41,47.59359,-54.27349
2021-11-21 09:14:00+00:00,281.0,8.58,282.0,10.07,12.41,47.59359,-54.27349
2021-11-21 09:24:00+00:00,290.0,6.12,286.0,9.36,12.41,47.59359,-54.27349
2021-11-21 09:34:00+00:00,280.0,6.24,273.0,9.26,12.41,47.59359,-54.27349
2021-11-21 09:44:00+00:00,288.0,7.72,289.0,10.13,12.41,47.59359,-54.27349
2021-11-21 09:54:00+00:00,293.0,8.52,293.0,10.02,12.41,47.59359,-54.27349
2021-11-21 10:04:00+00:00,302.0,4.65,287.0,8.16,12.41,47.59359,-54.27349
2021-11-21 10:14:01+00:00,297.0,5.95,290.0,9.39,12.41,47.59359,-54.27349
2021-11-21 10:24:01+00:00,295.0,5.95,288.0,9.27,12.41,47.59359,-54.27349
2021-11-21 10:34:01+00:00,314.0,4.64,317.0,5.49,12.41,47.59359,-54.27349
2021-11-21 10:44:01+00:00,302.0,7.28,296.0,10.51,12.41,47.59359,-54.27349
2021-11-21 10:54:01+00:00,317.0,5.35,290.0,9.2,12.41,47.59359,-54.27349
2021-11-21 11:04:01+00:00,1.0,4.72,12.0,6.29,12.41,47.59359,-54.27349
2021-11-21 11:14:00+00:00,340.0,4.67,322.0,6.04,12.41,47.59359,-54.27349
2021-11-21 11:24:00+00:00,10.0,5.28,327.0,6.55,12.41,47.59359,-54.27349
2021-11-21 11:34:00+00:00,355.0,4.43,323.0,6.49,12.41,47.59359,-54.27349
2021-11-21 11:44:00+00:00,6.0,5.32,15.0,6.85,12.41,47.59359,-54.27349
2021-11-21 11:54:00+00:00,7.0,6.57,14.0,7.95,12.41,47.59359,-54.27349
2021-11-21 12:04:00+00:00,331.0,5.09,296.0,9.15,12.41,47.59359,-54.27349
2021-11-21 12:14:00+00:00,342.0,6.7,336.0,8.14,14.0,47.59359,-54.27349
2021-11-21 12:24:00+00:00,3.0,5.37,339.0,6.98,14.0,47.59359,-54.27349
2021-11-21 12:34:00+00:00,308.0,7.04,300.0,10.49,14.0,47.59359,-54.27349
2021-11-21 12:44:00+00:00,325.0,6.74,323.0,8.45,14.0,47.59359,-54.27349
2021-11-21 12:54:00+00:00,320.0,6.8,302.0,9.78,14.0,47.59359,-54.27349
2021-11-21 13:04:00+00:00,316.0,7.15,300.0,10.93,14.0,47.59359,-54.27349
2021-11-21 13:14:00+00:00,325.0,6.66,315.0,7.88,14.32,47.59359,-54.27349
2021-11-21 13:24:00+00:00,6.0,4.9,21.0,6.1,14.32,47.59359,-54.27349
2021-11-21 13:34:00+00:00,352.0,4.27,354.0,4.87,14.32,47.59359,-54.27349
2021-11-21 13:44:00+00:00,2.0,5.77,2.0,7.19,14.32,47.59359,-54.27349
2021-11-21 13:54:00+00:00,357.0,5.64,1.0,6.84,14.32,47.59359,-54.27349
2021-11-21 14:04:00+00:00,1.0,4.98,4.0,6.3,14.32,47.59359,-54.27349
2021-11-21 14:14:00+00:00,337.0,5.28,330.0,6.54,14.32,47.59359,-54.27349
2021-11-21 14:24:00+00:00,346.0,5.8,335.0,7.76,14.32,47.59359,-54.27349
2021-11-21 14:34:00+00:00,359.0,5.73,358.0,7.66,14.32,47.59359,-54.27349
2021-11-21 14:44:00+00:00,13.0,6.11,12.0,7.8,14.32,47.59359,-54.27349
2021-11-21 14:54:00+00:00,6.0,6.85,12.0,8.44,14.32,47.59359,-54.27349
2021-11-21 15:04:00+00:00,327.0,7.9,310.0,11.34,14.32,47.59359,-54.27349
2021-11-21 16:14:00+00:00,10.0,5.73,341.0,7.56,13.68,47.59359,-54.27349
2021-11-21 16:24:00+00:00,16.0,5.33,19.0,6.71,13.68,47.59359,-54.27349
2021-11-21 16:34:00+00:00,308.0,7.41,297.0,11.44,13.68,47.59359,-54.27349
2021-11-21 16:44:00+00:00,334.0,6.41,325.0,7.92,13.68,47.59359,-54.27349
2021-11-21 16:54:00+00:00,300.0,8.35,299.0,11.24,13.68,47.59359,-54.27349
2021-11-21 17:04:00+00:00,15.0,6.12,12.0,7.79,13.68,47.59359,-54.27349
2021-11-21 17:14:00+00:00,357.0,5.62,14.0,6.72,14.24,47.59359,-54.27349
2021-11-21 17:24:00+00:00,323.0,6.34,325.0,7.44,14.24,47.59359,-54.27349
2021-11-21 17:34:00+00:00,308.0,4.23,311.0,5.02,14.24,47.59359,-54.27349
2021-11-21 17:44:00+00:00,317.0,6.72,299.0,10.03,14.24,47.59359,-54.27349
2021-11-21 17:54:00+00:00,328.0,6.56,322.0,8.12,14.24,47.59359,-54.27349
2021-11-21 18:04:00+00:00,318.0,5.85,306.0,8.44,14.24,47.59359,-54.27349
2021-11-21 18:14:01+00:00,322.0,4.29,322.0,5.33,14.32,47.59359,-54.27349
2021-11-21 18:24:01+00:00,326.0,3.96,322.0,4.92,14.32,47.59359,-54.27349
2021-11-21 18:34:01+00:00,344.0,5.24,341.0,5.92,14.32,47.59359,-54.27349
2021-11-21 18:44:01+00:00,313.0,3.52,311.0,3.97,14.32,47.59359,-54.27349
2021-11-21 18:54:01+00:00,314.0,3.64,319.0,4.73,14.32,47.59359,-54.27349
2021-11-21 19:04:01+00:00,304.0,4.94,298.0,6.76,14.32,47.59359,-54.27349
2021-11-21 20:14:01+00:00,306.0,3.47,307.0,3.99,12.97,47.59359,-54.27349
2021-11-21 20:24:01+00:00,345.0,3.06,338.0,4.04,12.97,47.59359,-54.27349
2021-11-21 20:34:01+00:00,305.0,2.97,304.0,3.48,12.97,47.59359,-54.27349
2021-11-21 20:44:01+00:00,303.0,2.49,299.0,3.3,12.97,47.59359,-54.27349
2021-11-21 20:54:01+00:00,288.0,2.6,297.0,3.18,12.97,47.59359,-54.27349
2021-11-21 21:04:01+00:00,307.0,3.13,304.0,3.96,12.97,47.59359,-54.27349
2021-11-21 21:14:01+00:00,289.0,3.05,290.0,3.59,12.65,47.59359,-54.27349
2021-11-21 21:24:01+00:00,296.0,4.1,301.0,4.87,12.65,47.59359,-54.27349
2021-11-21 21:34:01+00:00,266.0,4.06,266.0,4.45,12.65,47.59359,-54.27349
2021-11-21 21:44:01+00:00,268.0,3.83,268.0,4.47,12.65,47.59359,-54.27349
2021-11-21 21:54:01+00:00,263.0,3.24,260.0,3.83,12.65,47.59359,-54.27349
2021-11-21 22:04:01+00:00,277.0,3.88,277.0,4.35,12.65,47.59359,-54.27349
2021-11-21 22:14:01+00:00,274.0,2.74,260.0,3.96,12.57,47.59359,-54.27349
2021-11-21 22:24:01+00:00,292.0,2.68,300.0,3.44,12.57,47.59359,-54.27349
2021-11-21 22:34:01+00:00,281.0,3.24,281.0,3.71,12.57,47.59359,-54.27349
2021-11-21 22:44:01+00:00,295.0,3.91,300.0,4.54,12.57,47.59359,-54.27349
2021-11-21 22:54:01+00:00,282.0,3.23,285.0,4.27,12.57,47.59359,-54.27349
2021-11-21 23:04:01+00:00,269.0,2.65,269.0,3.38,12.57,47.59359,-54.27349
2021-11-21 23:14:01+00:00,276.0,2.16,279.0,2.69,12.57,47.59359,-54.27349
2021-11-21 23:24:01+00:00,280.0,2.88,277.0,3.3,12.57,47.59359,-54.27349
2021-11-21 23:34:01+00:00,258.0,2.66,253.0,3.5,12.57,47.59359,-54.27349
2021-11-21 23:44:01+00:00,264.0,2.99,268.0,3.34,12.57,47.59359,-54.27349
2021-11-21 23:54:01+00:00,258.0,3.12,259.0,3.76,12.57,47.59359,-54.27349
